This is the latest recevied weather packets stored in our database for station/object KA7KDX-4. If no packets are shown the sender has not sent any weather packets the latest 10 day(s).
| Time | Temp. | Humidity | Pressure | Rain* | Wind** | Luminosity | Snow |
|---|---|---|---|---|---|---|---|
| 1778041806 | 13.33° C | 52% | 1006.9 hPa | 0 mm | - | - | - |
| 1778041506 | 13.33° C | 52% | 1007 hPa | 0 mm | - | - | - |
| 1778041206 | 12.78° C | 52% | 1007 hPa | 0 mm | - | - | - |
| 1778040905 | 12.78° C | 52% | 1006.9 hPa | 0 mm | - | - | - |
| 1778040605 | 12.78° C | 53% | 1007 hPa | 0 mm | - | - | - |
| 1778040306 | 12.78° C | 53% | 1007 hPa | 0 mm | - | - | - |
| 1778040005 | 12.78° C | 54% | 1007 hPa | 0 mm | - | - | - |
| 1778039706 | 12.78° C | 53% | 1006.9 hPa | 0 mm | - | - | - |
| 1778039406 | 12.78° C | 53% | 1006.7 hPa | 0 mm | - | - | - |
| 1778039106 | 12.78° C | 52% | 1006.5 hPa | 0 mm | - | - | - |
| 1778038806 | 13.33° C | 52% | 1006.3 hPa | 0 mm | - | - | - |
| 1778038505 | 13.33° C | 51% | 1006.4 hPa | 0 mm | - | - | - |
| 1778038206 | 13.33° C | 51% | 1006.3 hPa | 0 mm | - | - | - |
| 1778037905 | 12.78° C | 52% | 1006.4 hPa | 0 mm | - | - | - |
| 1778037605 | 13.33° C | 52% | 1006.4 hPa | 0 mm | - | - | - |
| 1778037305 | 13.33° C | 52% | 1006.3 hPa | 0 mm | - | - | - |
| 1778037006 | 13.33° C | 51% | 1006.2 hPa | 0 mm | - | - | - |
| 1778036706 | 13.33° C | 51% | 1006.1 hPa | 0 mm | - | - | - |
| 1778036406 | 13.89° C | 50% | 1005.9 hPa | 0 mm | - | - | - |
| 1778036106 | 13.89° C | 50% | 1005.8 hPa | 0 mm | - | - | - |
| 1778035806 | 13.89° C | 52% | 1005.8 hPa | 0 mm | - | - | - |
| 1778035505 | 13.89° C | 53% | 1005.5 hPa | 0 mm | - | - | - |
| 1778035205 | 15° C | 50% | 1004.9 hPa | 0 mm | - | - | - |
| 1778034905 | 15.56° C | 46% | 1004.5 hPa | 0 mm | - | - | - |
| 1778034605 | 16.11° C | 45% | 1004.3 hPa | 0 mm | - | - | - |
* Rain latest hour (hover to see other rain measurements)
** Current wind speed in m/s (hover to see current wind gust speed)